Location: Peterborough
(44.3091°N, 78.3197°W)
Time: 01:17:50
(UTC-04:00)

SR - Pass Details

Date: 25 March 2023
Orbit: 581 x 867 km, 66.7° (Epoch: 02 June)

Event Time Altitude Azimuth Distance (km) Brightness Sun altitude
Rises 10:57:17 0° 337° (NNW) 2,810 ? 37.2°
Reaches altitude 10° 10:59:54 10° 353° (N) 1,915 ? 37.6°
Maximum altitude 11:03:18 23° 46° (NE) 1,297 ? 38.0°
Drops below altitude 10° 11:06:48 10° 99° (E) 1,971 ? 38.4°
Sets 11:09:31 0° 114° (ESE) 2,915 ? 38.8°
